Weather in Voskresenskoe

Russia / Nizhny Novgorod Oblast'     56°50′09″N   45°26′09″E
temp.,
°C
wind,
m/s
gust,
m/s
humid.,
%
clouds,
%
prec.,
mm/h
press.,
hPa
HPBL,
m
11 may, tue
tue1100:00+6nne4109777 0.0 1026364
03:00+5nne4109847 0.0 1027281
06:00+7nne489489 0.0 1027314
09:00+13ne46735 0.0 1028543
12:00+19ne44585 0.0 1027889
15:00+21ene345724 0.0 10271062
18:00+19ene367184 0.0 1027395
21:00+13ne389358 0.0 1028147
12 may, wed
wed1200:00+12ne2796100 0.0 1029129
03:00+11ene249740 0.0 102886
06:00+14ne37885 0.0 1028184
09:00+20ene476315 0.0 1028608
12:00+24ese484177 0.0 10272093
15:00+25se573528 0.0 10262705
18:00+19s396186 0.0 1026319
21:00+15se22778 0.0 102613
13 may, thu
thu1300:00+14se2370100 0.0 102750
03:00+14ese2470100 0.0 102680
06:00+15ese277287 0.0 1026201
09:00+18ese386321 0.0 1025473
12:00+23se694010 0.0 10241503
15:00+23se594699 0.0 10231924
18:00+17ese3116976 0.0 1022422
21:00+17se3137494 0.1 1021537
14 may, fri
fri1400:00+15se3137799 0.0 1020382
03:00+15sse3981100 0.1 1020261
06:00+16sse24770 0.0 1021183
09:00+21s235982 0.0 1020699
12:00+24ssw3450100 0.0 10201502
15:00+25ssw3448100 0.0 10201765
18:00+22s256672 0.1 1019210
21:00+17sse22864 0.1 101811
15 may, sat
sat1500:00+15ese239143 0.0 101858
03:00+14sse239494 0.0 101863
06:00+17sse378072 0.0 1017182
09:00+23sse4949100 0.0 1016617
12:00+27s6123092 0.0 10151382
15:00+28s6123399 0.0 10141615
18:00+24s6124672 0.0 10131319
21:00+20s41464100 0.0 1014674